Regional Weather Roundup
Issued by NWS

Home | Current Version | Previous Version | Text Only | Print | Product List | Glossary On
Versions: 1 2 3 4 5 6 7 8 9 10 11 12 13 14 15 16 17 18 19 20 21 22 23 24 25 26 27 28 29 30 31 32 33 34 35 36 37 38 39 40 41 42 43 44 45 46 47 48 49 50
000
ASUS43 KBIS 290810
RWRND

NORTH DAKOTA REGIONAL WEATHER ROUNDUP
NATIONAL WEATHER SERVICE BISMARCK ND
300 AM CDT SUN MAY 29 2016

NOTE: "FAIR" INDICATES FEW OR NO CLOUDS BELOW 12,000 FEET WITH NO
SIGNIFICANT WEATHER AND/OR OBSTRUCTIONS TO VISIBILITY.


NDZ001>003-009>011-017-290900-
NORTHWEST NORTH DAKOTA

CITY           SKY/WX    TMP DP  RH WIND       PRES   REMARKS
WILLISTON      CLEAR     45  43  93 CALM      29.97S
MINOT          PTCLDY    56  54  93 SW6       29.93F
MINOT AFB      CLEAR     53  52  97 SW7       29.93S
$$

NDZ018>021-031>035-040>046-290900-
SOUTHWEST NORTH DAKOTA

CITY           SKY/WX    TMP DP  RH WIND       PRES   REMARKS
BISMARCK       CLEAR     52  51  97 W5        29.96S
DICKINSON      PTCLDY    47  46  97 W8        29.99R
GARRISON         N/A     51  49  92 NW7       29.95S
HETTINGER ARPT FOG       39  38  96 CALM      30.03S VSB 1/4
$$

NDZ004>008-012>016-024-026-027-054-290900-
NORTHEAST NORTH DAKOTA

CITY           SKY/WX    TMP DP  RH WIND       PRES   REMARKS
GRAND FORKS    CLOUDY    59  57  93 NW5       29.86S
GRND FRKS AFB  CLOUDY    59  59 100 CALM      29.87S FOG
DEVILS LAKE    CLOUDY    58  57  97 N6        29.92S
$$

NDZ022-023-025-028>030-036>039-047>053-290900-
SOUTHEAST NORTH DAKOTA

CITY           SKY/WX    TMP DP  RH WIND       PRES   REMARKS
FARGO          CLOUDY    60  58  92 NW7       29.87R
JAMESTOWN      CLOUDY    54  53  97 NW3       29.90S
$$




USA.gov is the U.S. government's official web portal to all federal, state and local government web resources and services.